WJA595 CYHM-CYYC

Flight info

Callsign WJA595
Flight time N/A
Altitude 34000
Route MUNR2 DERLO Q935 HOCKE DCT TVC DCT IWD DCT ALBNG Q834 OTLUR/N0442F360 Q845 KOBID DCT GUDOG DCT BIRKO BIRKO6
Aircraft B738/M-SDE2E3FGHIRWXY/LB1

Departure

Time 2026-04-16 21:34
Airport John C. Munro Hamilton International Airport (CYHM)

Arrival

Time N/A
Airport Calgary International Airport (CYYC)
Time Latitude Longitude Altitude Speed Heading
2026-04-16 21:02 43.16410 -79.92572 785 ft 0 kts 198°
2026-04-16 21:20 43.16419 -79.92569 785 ft 2 kts 191°
2026-04-16 21:21 43.16433 -79.92564 785 ft 2 kts 198°
2026-04-16 21:21 43.16447 -79.92557 785 ft 2 kts 196°
2026-04-16 21:21 43.16462 -79.92552 785 ft 2 kts 197°
2026-04-16 21:21 43.16477 -79.92545 785 ft 2 kts 196°
2026-04-16 21:22 43.16492 -79.92546 785 ft 2 kts 160°
2026-04-16 21:22 43.16504 -79.92555 785 ft 2 kts 133°
2026-04-16 21:22 43.16512 -79.92573 785 ft 2 kts 104°
2026-04-16 21:22 43.16514 -79.92591 785 ft 2 kts 105°
2026-04-16 21:23 43.16519 -79.92611 785 ft 1 kts 106°
2026-04-16 21:23 43.16522 -79.92629 785 ft 2 kts 105°
2026-04-16 21:23 43.16524 -79.92638 785 ft 0 kts 106°
2026-04-16 21:26 43.16523 -79.92632 785 ft 1 kts 107°
2026-04-16 21:27 43.16518 -79.92607 785 ft 4 kts 102°
2026-04-16 21:27 43.16528 -79.92555 785 ft 8 kts 48°
2026-04-16 21:27 43.16576 -79.92509 785 ft 10 kts 15°
2026-04-16 21:27 43.16636 -79.92527 785 ft 11 kts 330°
2026-04-16 21:28 43.16707 -79.92583 785 ft 15 kts 330°
2026-04-16 21:28 43.16795 -79.92652 785 ft 18 kts 330°
2026-04-16 21:28 43.16894 -79.92729 785 ft 18 kts 330°
2026-04-16 21:28 43.16985 -79.92800 785 ft 15 kts 330°
2026-04-16 21:29 43.17057 -79.92842 785 ft 11 kts
2026-04-16 21:29 43.17112 -79.92784 785 ft 12 kts 48°
2026-04-16 21:29 43.17169 -79.92694 785 ft 15 kts 49°
2026-04-16 21:29 43.17228 -79.92602 785 ft 11 kts 48°
2026-04-16 21:30 43.17252 -79.92565 785 ft 2 kts 49°
2026-04-16 21:30 43.17255 -79.92561 785 ft 0 kts 49°
2026-04-16 21:30 43.17264 -79.92548 785 ft 4 kts 49°
2026-04-16 21:31 43.17294 -79.92500 785 ft 9 kts 48°
2026-04-16 21:31 43.17345 -79.92419 785 ft 13 kts 49°
2026-04-16 21:31 43.17375 -79.92298 785 ft 14 kts 97°
2026-04-16 21:31 43.17346 -79.92156 785 ft 15 kts 107°
2026-04-16 21:32 43.17310 -79.91996 785 ft 16 kts 107°
2026-04-16 21:32 43.17266 -79.91866 785 ft 11 kts 128°
2026-04-16 21:32 43.17229 -79.91794 785 ft 5 kts 107°
2026-04-16 21:32 43.17249 -79.91756 785 ft 5 kts 342°
2026-04-16 21:33 43.17269 -79.91811 785 ft 9 kts 287°
2026-04-16 21:33 43.17319 -79.92035 785 ft 55 kts 287°
2026-04-16 21:33 43.17476 -79.92726 785 ft 111 kts 287°
2026-04-16 21:34 43.18459 -79.98341 2064 ft 200 kts 268°
2026-04-16 21:34 43.18223 -80.00394 2548 ft 215 kts 255°
2026-04-16 21:34 43.17706 -80.02419 2805 ft 236 kts 250°
2026-04-16 21:35 43.17129 -80.04610 3058 ft 256 kts 250°
2026-04-16 21:35 43.16484 -80.06851 3831 ft 254 kts 248°
2026-04-16 21:35 43.15862 -80.09092 4549 ft 254 kts 251°
2026-04-16 21:35 43.15506 -80.11443 5230 ft 254 kts 262°
2026-04-16 21:36 43.15316 -80.13835 5907 ft 255 kts 262°
2026-04-16 21:36 43.15105 -80.16267 6570 ft 257 kts 261°
2026-04-16 21:36 43.14908 -80.18670 7217 ft 259 kts 262°
2026-04-16 21:36 43.14735 -80.20781 7784 ft 260 kts 262°
2026-04-16 21:37 43.14498 -80.23487 8508 ft 262 kts 261°
2026-04-16 21:37 43.14281 -80.25972 9168 ft 264 kts 261°
2026-04-16 21:37 43.14064 -80.28442 9819 ft 266 kts 261°
2026-04-16 21:37 43.13840 -80.30973 10299 ft 275 kts 260°
2026-04-16 21:38 43.13610 -80.33584 10367 ft 298 kts 261°
2026-04-16 21:38 43.13361 -80.36477 10516 ft 317 kts 261°
2026-04-16 21:38 43.13099 -80.39540 10818 ft 330 kts 261°
2026-04-16 21:38 43.12830 -80.42633 11429 ft 333 kts 260°
2026-04-16 21:39 43.12557 -80.45677 11946 ft 338 kts 259°
2026-04-16 21:39 43.12281 -80.48731 12569 ft 340 kts 259°
2026-04-16 21:39 43.11992 -80.51942 13187 ft 342 kts 259°
2026-04-16 21:39 43.11700 -80.55177 13797 ft 345 kts 259°
2026-04-16 21:40 43.11404 -80.58443 14406 ft 347 kts 259°
2026-04-16 21:40 43.11108 -80.61711 15002 ft 350 kts 259°
2026-04-16 21:40 43.10807 -80.65019 15591 ft 352 kts 258°
2026-04-16 21:40 43.10502 -80.68349 16177 ft 354 kts 258°
2026-04-16 21:41 43.10199 -80.71653 16724 ft 356 kts 258°
2026-04-16 21:41 43.09895 -80.74957 17253 ft 359 kts 258°
2026-04-16 21:41 43.09577 -80.78359 17779 ft 361 kts 258°
2026-04-16 21:41 43.09260 -80.81683 18289 ft 363 kts 258°
2026-04-16 21:42 43.08972 -80.84775 18734 ft 365 kts 258°
2026-04-16 21:42 43.08732 -80.87358 19112 ft 367 kts 258°
2026-04-16 21:42 43.08389 -80.91021 19580 ft 370 kts 258°
2026-04-16 21:42 43.08070 -80.94428 20032 ft 372 kts 258°
2026-04-16 21:43 43.07760 -80.97720 20444 ft 375 kts 258°
2026-04-16 21:43 43.07438 -81.01133 20837 ft 377 kts 258°
2026-04-16 21:43 43.07128 -81.04665 21288 ft 380 kts 260°
2026-04-16 21:43 43.07013 -81.08289 21645 ft 387 kts 266°
2026-04-16 21:44 43.07219 -81.11948 22034 ft 394 kts 274°
2026-04-16 21:44 43.07782 -81.15627 22450 ft 398 kts 278°
2026-04-16 21:44 43.08473 -81.19315 22807 ft 401 kts 278°
2026-04-16 21:44 43.09150 -81.23029 23159 ft 403 kts 278°
2026-04-16 21:45 43.09800 -81.26717 23587 ft 403 kts 277°
2026-04-16 21:45 43.10437 -81.30465 23949 ft 404 kts 277°
2026-04-16 21:45 43.11068 -81.34195 24255 ft 407 kts 277°
2026-04-16 21:45 43.11713 -81.37945 24605 ft 409 kts 278°
2026-04-16 21:46 43.12377 -81.41716 24876 ft 412 kts 278°
2026-04-16 21:46 43.13045 -81.45499 25202 ft 413 kts 278°
2026-04-16 21:46 43.13706 -81.49255 25563 ft 413 kts 277°
2026-04-16 21:46 43.14350 -81.52931 25807 ft 416 kts 278°
2026-04-16 21:47 43.15036 -81.56875 26085 ft 418 kts 278°
2026-04-16 21:47 43.15695 -81.60697 26421 ft 418 kts 277°
2026-04-16 21:47 43.16363 -81.64589 26620 ft 421 kts 278°
2026-04-16 21:47 43.17042 -81.68474 26962 ft 421 kts 277°
2026-04-16 21:48 43.17728 -81.72363 27314 ft 421 kts 277°
2026-04-16 21:48 43.18398 -81.76247 27538 ft 423 kts 277°
2026-04-16 21:48 43.19092 -81.80218 27710 ft 427 kts 277°
2026-04-16 21:48 43.19807 -81.84162 27874 ft 430 kts 278°
2026-04-16 21:49 43.20539 -81.88114 28157 ft 430 kts 278°
2026-04-16 21:49 43.21267 -81.92091 28539 ft 428 kts 278°
2026-04-16 21:49 43.21966 -81.96025 28894 ft 426 kts 277°
2026-04-16 21:49 43.22630 -81.99931 29268 ft 423 kts 276°
2026-04-16 21:50 43.23262 -82.03870 29625 ft 420 kts 276°
2026-04-16 21:50 43.23869 -82.07732 29932 ft 419 kts 276°
2026-04-16 21:50 43.24490 -82.11616 30299 ft 416 kts 276°
2026-04-16 21:50 43.25111 -82.15463 30690 ft 413 kts 276°
2026-04-16 21:51 43.25742 -82.19340 30930 ft 414 kts 276°
2026-04-16 21:51 43.26385 -82.23155 31203 ft 413 kts 276°
2026-04-16 21:51 43.26877 -82.26978 31469 ft 406 kts 269°
2026-04-16 21:51 43.26931 -82.30804 31760 ft 399 kts 262°
2026-04-16 21:52 43.26808 -82.34588 32006 ft 398 kts 262°
2026-04-16 21:52 43.26703 -82.38378 32251 ft 398 kts 263°
2026-04-16 21:52 43.26640 -82.42179 32498 ft 397 kts 263°
2026-04-16 21:52 43.26579 -82.45943 32701 ft 397 kts 263°
2026-04-16 21:53 43.26506 -82.49726 32777 ft 400 kts 263°
2026-04-16 21:53 43.26427 -82.53556 32885 ft 403 kts 263°
2026-04-16 21:53 43.26356 -82.57403 33091 ft 402 kts 263°
2026-04-16 21:53 43.26285 -82.61237 33288 ft 402 kts 263°
2026-04-16 21:54 43.26255 -82.65044 33483 ft 404 kts 267°
2026-04-16 21:54 43.26736 -82.68871 33651 ft 416 kts 280°
2026-04-16 21:54 43.27800 -82.72602 33847 ft 421 kts 285°
2026-04-16 21:55 43.30535 -82.79731 33892 ft 424 kts 296°
2026-04-16 21:55 43.33998 -82.86217 33894 ft 420 kts 297°
2026-04-16 21:56 43.37336 -82.92705 33891 ft 416 kts 296°
2026-04-16 21:56 43.40624 -82.99255 33890 ft 416 kts 296°
2026-04-16 21:57 43.43908 -83.05675 33888 ft 412 kts 297°
2026-04-16 21:57 43.47202 -83.12101 33890 ft 411 kts 296°
2026-04-16 21:58 43.50515 -83.18578 33888 ft 416 kts 296°
2026-04-16 21:58 43.53820 -83.25027 33884 ft 415 kts 296°
2026-04-16 21:59 43.57122 -83.31506 33880 ft 411 kts 297°
2026-04-16 21:59 43.60443 -83.37933 33880 ft 412 kts 297°
2026-04-16 22:00 43.63756 -83.44400 33881 ft 414 kts 296°
2026-04-16 22:00 43.67009 -83.50901 33879 ft 414 kts 297°
2026-04-16 22:01 43.70311 -83.57347 33882 ft 410 kts 297°
2026-04-16 22:01 43.73565 -83.63795 33887 ft 413 kts 296°
2026-04-16 22:02 43.76841 -83.70370 33886 ft 412 kts 295°
2026-04-16 22:02 43.80050 -83.76902 33889 ft 411 kts 295°
2026-04-16 22:03 43.83285 -83.83365 33889 ft 412 kts 296°
2026-04-16 22:03 43.86547 -83.89882 33889 ft 413 kts 296°
2026-04-16 22:04 43.89806 -83.96442 33889 ft 412 kts 296°
2026-04-16 22:04 43.93068 -84.02953 33888 ft 412 kts 296°
2026-04-16 22:05 43.96341 -84.09428 33885 ft 412 kts 296°
2026-04-16 22:05 43.99606 -84.15973 33884 ft 413 kts 296°
2026-04-16 22:06 44.02824 -84.22525 33881 ft 412 kts 296°
2026-04-16 22:06 44.07645 -84.32362 33880 ft 411 kts 296°
2026-04-16 22:07 44.10892 -84.38876 33881 ft 411 kts 296°
2026-04-16 22:07 44.14125 -84.45417 33881 ft 411 kts 296°
2026-04-16 22:08 44.17338 -84.51954 33885 ft 412 kts 296°
2026-04-16 22:08 44.20555 -84.58575 33890 ft 409 kts 295°
2026-04-16 22:09 44.23730 -84.65169 33895 ft 410 kts 295°
2026-04-16 22:09 44.26884 -84.71744 33900 ft 410 kts 295°
2026-04-16 22:10 44.30064 -84.78336 33899 ft 410 kts 295°
2026-04-16 22:10 44.33258 -84.84909 33899 ft 411 kts 295°
2026-04-16 22:11 44.36431 -84.91510 33894 ft 410 kts 295°
2026-04-16 22:11 44.39575 -84.98103 33892 ft 409 kts 295°
2026-04-16 22:12 44.42716 -85.04684 33898 ft 406 kts 295°
2026-04-16 22:12 44.45855 -85.11198 33908 ft 402 kts 295°
2026-04-16 22:13 44.48953 -85.17672 33913 ft 399 kts 296°
2026-04-16 22:13 44.52023 -85.24063 33917 ft 397 kts 296°
2026-04-16 22:14 44.55119 -85.30435 33917 ft 397 kts 296°
2026-04-16 22:14 44.58174 -85.36878 33916 ft 397 kts 296°
2026-04-16 22:15 44.61225 -85.43326 33917 ft 397 kts 296°
2026-04-16 22:15 44.64261 -85.49754 33917 ft 396 kts 296°
2026-04-16 22:16 44.67266 -85.56187 33917 ft 397 kts 295°
2026-04-16 22:16 44.70159 -85.62747 33916 ft 396 kts 294°
2026-04-16 22:17 44.73044 -85.69358 33917 ft 394 kts 294°
2026-04-16 22:17 44.75898 -85.75880 33923 ft 394 kts 294°
2026-04-16 22:18 44.78772 -85.82466 33928 ft 395 kts 294°
2026-04-16 22:18 44.81654 -85.89006 33930 ft 396 kts 294°
2026-04-16 22:19 44.84517 -85.95590 33931 ft 394 kts 293°
2026-04-16 22:19 44.87374 -86.02200 33931 ft 394 kts 294°
2026-04-16 22:20 44.90219 -86.08765 33932 ft 395 kts 294°
2026-04-16 22:20 44.93089 -86.15340 33934 ft 394 kts 294°
2026-04-16 22:21 44.95932 -86.21936 33936 ft 394 kts 294°
2026-04-16 22:21 44.98783 -86.28565 33935 ft 399 kts 294°
2026-04-16 22:22 45.01688 -86.35308 33936 ft 407 kts 294°
2026-04-16 22:22 45.04633 -86.42162 33935 ft 414 kts 295°
2026-04-16 22:23 45.07637 -86.49183 33935 ft 419 kts 295°
2026-04-16 22:23 45.10657 -86.56261 33936 ft 424 kts 296°
2026-04-16 22:24 45.13712 -86.63436 33941 ft 427 kts 296°
2026-04-16 22:24 45.16773 -86.70641 33954 ft 426 kts 295°
2026-04-16 22:25 45.19804 -86.77802 33968 ft 425 kts 295°
2026-04-16 22:25 45.22838 -86.84985 33980 ft 424 kts 295°
2026-04-16 22:26 45.25845 -86.92121 33991 ft 424 kts 296°
2026-04-16 22:26 45.28859 -86.99292 33999 ft 423 kts 296°
2026-04-16 22:27 45.31842 -87.06451 34000 ft 422 kts 296°
2026-04-16 22:27 45.34821 -87.13619 33999 ft 423 kts 297°
2026-04-16 22:28 45.37808 -87.20815 33992 ft 422 kts 297°
2026-04-16 22:28 45.40781 -87.28014 33991 ft 422 kts 296°
2026-04-16 22:29 45.43751 -87.35187 33997 ft 422 kts 297°
2026-04-16 22:29 45.46742 -87.42389 33988 ft 424 kts 297°
2026-04-16 22:30 45.49735 -87.49577 33971 ft 423 kts 297°
2026-04-16 22:30 45.52736 -87.56772 33955 ft 422 kts 297°
2026-04-16 22:31 45.55712 -87.63987 33940 ft 423 kts 297°
2026-04-16 22:31 45.58651 -87.71222 33923 ft 422 kts 296°
2026-04-16 22:32 45.61569 -87.78441 33906 ft 422 kts 296°
2026-04-16 22:32 45.64525 -87.85735 33890 ft 423 kts 296°
2026-04-16 22:33 45.67455 -87.92966 33890 ft 423 kts 296°
2026-04-16 22:33 45.70422 -88.00260 33889 ft 423 kts 296°
2026-04-16 22:34 45.73367 -88.07489 33890 ft 423 kts 296°
2026-04-16 22:34 45.76313 -88.14789 33889 ft 423 kts 296°
2026-04-16 22:35 45.79214 -88.22049 33889 ft 422 kts 296°
2026-04-16 22:35 45.82127 -88.29354 33890 ft 422 kts 296°
2026-04-16 22:36 45.85057 -88.36632 33890 ft 422 kts 296°
2026-04-16 22:36 45.87968 -88.43919 33890 ft 423 kts 296°
2026-04-16 22:37 45.90873 -88.51234 33889 ft 422 kts 296°
2026-04-16 22:37 45.93786 -88.58493 33890 ft 422 kts 296°
2026-04-16 22:38 45.96675 -88.65820 33891 ft 422 kts 295°
2026-04-16 22:38 45.99548 -88.73144 33895 ft 422 kts 296°
2026-04-16 22:39 46.02479 -88.80492 33901 ft 421 kts 296°
2026-04-16 22:39 46.05361 -88.87779 33905 ft 421 kts 296°
2026-04-16 22:40 46.08223 -88.95121 33908 ft 420 kts 297°
2026-04-16 22:40 46.11072 -89.02445 33908 ft 420 kts 297°
2026-04-16 22:41 46.13928 -89.09766 33908 ft 421 kts 297°
2026-04-16 22:41 46.16787 -89.17130 33908 ft 421 kts 297°
2026-04-16 22:42 46.19626 -89.24458 33908 ft 420 kts 297°
2026-04-16 22:42 46.22466 -89.31812 33918 ft 420 kts 297°
2026-04-16 22:43 46.25312 -89.39207 33917 ft 420 kts 297°
2026-04-16 22:43 46.28141 -89.46560 33917 ft 421 kts 297°
2026-04-16 22:44 46.30973 -89.53947 33916 ft 421 kts 297°
2026-04-16 22:44 46.33804 -89.61354 33902 ft 421 kts 297°
2026-04-16 22:45 46.36626 -89.68757 33885 ft 420 kts 297°
2026-04-16 22:45 46.39434 -89.76146 33866 ft 421 kts 297°
2026-04-16 22:46 46.42247 -89.83563 33862 ft 421 kts 297°
2026-04-16 22:46 46.45055 -89.90990 33862 ft 420 kts 297°
2026-04-16 22:47 46.47845 -89.98386 33862 ft 420 kts 297°
2026-04-16 22:47 46.50645 -90.05831 33862 ft 421 kts 297°
2026-04-16 22:48 46.53491 -90.13198 33861 ft 421 kts 301°
2026-04-16 22:48 46.56911 -90.20148 33862 ft 422 kts 304°
2026-04-16 22:49 46.60310 -90.27052 33862 ft 421 kts 304°
2026-04-16 22:49 46.63706 -90.33981 33862 ft 421 kts 304°
2026-04-16 22:50 46.67079 -90.40871 33862 ft 421 kts 304°
2026-04-16 22:50 46.70479 -90.47835 33862 ft 421 kts 304°
2026-04-16 22:51 46.73854 -90.54764 33856 ft 421 kts 304°
2026-04-16 22:51 46.77234 -90.61717 33848 ft 421 kts 304°
2026-04-16 22:52 46.80610 -90.68683 33840 ft 421 kts 303°
2026-04-16 22:52 46.83977 -90.75644 33835 ft 420 kts 303°
2026-04-16 22:53 46.87320 -90.82577 33835 ft 420 kts 303°
2026-04-16 22:53 46.90687 -90.89573 33835 ft 421 kts 304°
2026-04-16 22:54 46.94049 -90.96580 33835 ft 423 kts 304°
2026-04-16 22:54 46.97404 -91.03588 33832 ft 423 kts 305°
2026-04-16 22:55 47.00753 -91.10599 33827 ft 422 kts 306°
2026-04-16 22:55 47.04119 -91.17670 33819 ft 422 kts 307°
2026-04-16 22:56 47.07462 -91.24706 33817 ft 423 kts 307°
2026-04-16 22:56 47.10820 -91.31794 33817 ft 423 kts 307°
2026-04-16 22:57 47.14172 -91.38882 33817 ft 423 kts 307°
2026-04-16 22:57 47.17493 -91.45928 33817 ft 423 kts 307°
2026-04-16 22:58 47.20828 -91.53020 33817 ft 422 kts 307°
2026-04-16 22:58 47.24165 -91.60132 33817 ft 422 kts 307°
2026-04-16 22:59 47.27489 -91.67238 33817 ft 422 kts 306°
2026-04-16 22:59 47.30801 -91.74335 33816 ft 423 kts 306°
2026-04-16 23:00 47.34127 -91.81482 33816 ft 423 kts 306°
2026-04-16 23:00 47.37435 -91.88607 33813 ft 423 kts 306°
2026-04-16 23:01 47.40745 -91.95757 33801 ft 423 kts 306°
2026-04-16 23:01 47.44049 -92.02907 33789 ft 423 kts 307°
2026-04-16 23:02 47.47369 -92.10116 33781 ft 423 kts 306°
2026-04-16 23:02 47.50655 -92.17268 33780 ft 423 kts 306°
2026-04-16 23:03 47.53964 -92.24492 33779 ft 423 kts 306°
2026-04-16 23:03 47.57236 -92.31651 33779 ft 423 kts 306°
2026-04-16 23:04 47.60527 -92.38869 33779 ft 423 kts 307°
2026-04-16 23:04 47.63820 -92.46111 33776 ft 424 kts 306°
2026-04-16 23:05 47.67094 -92.53333 33767 ft 423 kts 306°
2026-04-16 23:05 47.70363 -92.60561 33757 ft 423 kts 307°
2026-04-16 23:06 47.73634 -92.67812 33752 ft 424 kts 306°
2026-04-16 23:06 47.76892 -92.75055 33748 ft 424 kts 306°
2026-04-16 23:07 47.80156 -92.82329 33743 ft 424 kts 306°
2026-04-16 23:07 47.83413 -92.89605 33736 ft 424 kts 306°
2026-04-16 23:08 47.86657 -92.96873 33734 ft 419 kts 307°
2026-04-16 23:08 47.89861 -93.04075 33734 ft 414 kts 307°
2026-04-16 23:09 47.92999 -93.11140 33734 ft 409 kts 308°
2026-04-16 23:09 47.96120 -93.18188 33730 ft 408 kts 308°
2026-04-16 23:10 47.99231 -93.25225 33725 ft 408 kts 308°
2026-04-16 23:10 48.02348 -93.32301 33720 ft 408 kts 308°
2026-04-16 23:11 48.05466 -93.39395 33719 ft 408 kts 308°
2026-04-16 23:11 48.08567 -93.46472 33718 ft 408 kts 308°
2026-04-16 23:12 48.11676 -93.53583 33718 ft 409 kts 308°
2026-04-16 23:12 48.14767 -93.60673 33716 ft 409 kts 308°
2026-04-16 23:13 48.17851 -93.67798 33717 ft 407 kts 307°
2026-04-16 23:13 48.20940 -93.74899 33718 ft 408 kts 308°
2026-04-16 23:14 48.24035 -93.82048 33720 ft 409 kts 308°
2026-04-16 23:14 48.27111 -93.89175 33721 ft 408 kts 307°
2026-04-16 23:15 48.31715 -93.99879 33719 ft 408 kts 307°
2026-04-16 23:16 48.34773 -94.07018 33717 ft 408 kts 308°
2026-04-16 23:16 48.37837 -94.14182 33716 ft 408 kts 308°
2026-04-16 23:17 48.40890 -94.21344 33716 ft 408 kts 308°
2026-04-16 23:17 48.43933 -94.28499 33716 ft 407 kts 308°
2026-04-16 23:18 48.46973 -94.35664 33716 ft 407 kts 307°
2026-04-16 23:18 48.50024 -94.42881 33716 ft 408 kts 308°
2026-04-16 23:19 48.53053 -94.50060 33716 ft 408 kts 308°
2026-04-16 23:19 48.56094 -94.57290 33716 ft 407 kts 307°
2026-04-16 23:20 48.59110 -94.64481 33716 ft 407 kts 308°
2026-04-16 23:20 48.62139 -94.71718 33716 ft 408 kts 307°
2026-04-16 23:21 48.65161 -94.78960 33716 ft 409 kts 307°
2026-04-16 23:21 48.68169 -94.86207 33719 ft 407 kts 307°
2026-04-16 23:22 48.71137 -94.93404 33725 ft 403 kts 308°
2026-04-16 23:22 48.74060 -95.00596 33730 ft 400 kts 309°
2026-04-16 23:23 48.77038 -95.07717 33734 ft 399 kts 310°
2026-04-16 23:23 48.79989 -95.14767 33734 ft 398 kts 309°
2026-04-16 23:24 48.82919 -95.21865 33734 ft 398 kts 309°
2026-04-16 23:24 48.85815 -95.29044 33734 ft 400 kts 309°
2026-04-16 23:25 48.88709 -95.36195 33732 ft 399 kts 309°
2026-04-16 23:25 48.91635 -95.43348 33731 ft 398 kts 310°
2026-04-16 23:26 48.94540 -95.50544 33733 ft 399 kts 309°
2026-04-16 23:26 48.97449 -95.57639 33730 ft 397 kts 310°
2026-04-16 23:27 49.00587 -95.64468 33727 ft 390 kts 318°
2026-04-16 23:27 49.04154 -95.70682 33722 ft 390 kts 317°
2026-04-16 23:28 49.07673 -95.76946 33715 ft 387 kts 317°
2026-04-16 23:28 49.11205 -95.83091 33715 ft 385 kts 319°
2026-04-16 23:29 49.14733 -95.89201 33715 ft 386 kts 318°
2026-04-16 23:29 49.18267 -95.95316 33716 ft 384 kts 319°
2026-04-16 23:30 49.21825 -96.01386 33716 ft 385 kts 319°
2026-04-16 23:30 49.25357 -96.07538 33716 ft 385 kts 318°
2026-04-16 23:31 49.28872 -96.13688 33716 ft 386 kts 318°
2026-04-16 23:31 49.32422 -96.19881 33716 ft 386 kts 318°
2026-04-16 23:32 49.35924 -96.26031 33718 ft 385 kts 319°
2026-04-16 23:32 49.39447 -96.32224 33727 ft 385 kts 319°
2026-04-16 23:33 49.42966 -96.38351 33736 ft 386 kts 319°
2026-04-16 23:33 49.46526 -96.44532 33758 ft 384 kts 319°
2026-04-16 23:34 49.50018 -96.50741 33801 ft 385 kts 319°
2026-04-16 23:34 49.53519 -96.56943 33836 ft 383 kts 319°
2026-04-16 23:35 49.57014 -96.63111 33861 ft 384 kts 319°
2026-04-16 23:35 49.60481 -96.69312 33870 ft 384 kts 318°
2026-04-16 23:36 49.63985 -96.75524 33872 ft 385 kts 318°
2026-04-16 23:36 49.67479 -96.81710 33871 ft 383 kts 318°
2026-04-16 23:37 49.70986 -96.87972 33873 ft 386 kts 318°
2026-04-16 23:37 49.74445 -96.94221 33872 ft 385 kts 318°
2026-04-16 23:38 49.77944 -97.00508 33871 ft 385 kts 318°
2026-04-16 23:38 49.81416 -97.06729 33871 ft 383 kts 318°
2026-04-16 23:39 49.84890 -97.12970 33872 ft 380 kts 318°
2026-04-16 23:39 49.88305 -97.19154 33872 ft 380 kts 317°
2026-04-16 23:40 49.91483 -97.25731 33871 ft 387 kts 309°
2026-04-16 23:40 49.94070 -97.33076 33871 ft 389 kts 308°
2026-04-16 23:41 49.96727 -97.40405 33871 ft 391 kts 308°
2026-04-16 23:41 49.99332 -97.47785 33871 ft 390 kts 307°
2026-04-16 23:42 50.01925 -97.55157 33871 ft 389 kts 308°
2026-04-16 23:42 50.04539 -97.62502 33871 ft 390 kts 308°
2026-04-16 23:43 50.07113 -97.69898 34049 ft 396 kts 306°